Weather History for Jefferson City, MO

Change the Weather History Date:

Tuesday, February 26, 2013

  Actual Average Record
Temperature  
Mean Temperature 34 °F -  
Max Temperature 36 °F 48 °F 79 °F (1981)
Min Temperature 33 °F 25 °F 2 °F (1934)
Degree Days  
Heating Degree Days 30    
Moisture  
Dew Point 31 °F    
Average Humidity 84    
Maximum Humidity 93    
Minimum Humidity 75    
Precipitation  
Precipitation 1.21 in - - ()
Sea Level Pressure  
Sea Level Pressure 29.53 in    
Wind  
Wind Speed 10 mph (NNW)    
Max Wind Speed 16 mph    
Max Gust Speed 29 mph    
Visibility 5 miles    
Events Rain , Snow , Thunderstorm    
Averages and records for this station are not official NWS values.
T = Trace of Precipitation, MM = Missing Value Source: NWS Daily Summary

Daily Weather History Graph

Daily Weather History Graph

Search for Another Location

Airport:

Trip Planner

Search our weather history database for the weather conditions in past years. The results will help you decide how hot, cold, wet, or windy it might be!

Date:

Astronomy

Feb. 26, 2013 Rise Set
Actual Time 6:44 AM CST 5:58 PM CST
Civil Twilight 6:17 AM CST 6:25 PM CST
Nautical Twilight 5:47 AM CST 6:56 PM CST
Astronomical Twilight 5:16 AM CST 7:27 PM CST
Moon 7:14 PM CST (2/26) 6:48 AM CST (2/26)
Length of Visible Light 12h 07m
Length of Day
11h 14m
Full, 99% of the Moon is Illuminated
Feb 26
Full
Mar 4
Last Quarter
Mar 11
New
Mar 19
First Quarter
Mar 27
Full

Hourly Weather History & Observations

Time (CST) Temp. Windchill Dew Point Humidity Pressure Visibility Wind Dir Wind Speed Gust Speed Precip Events Conditions
12:16 AM 35.6 °F 28.6 °F 30.2 °F 81% 29.56 in 2.5 mi ENE 9.2 mph 17.3 mph 0.01 in Snow Light Snow
12:40 AM 35.6 °F 27.5 °F 30.2 °F 81% 29.55 in 1.5 mi ENE 11.5 mph 18.4 mph 0.04 in Snow Light Snow
12:53 AM 35.1 °F 26.4 °F 30.9 °F 85% 29.51 in 1.5 mi NE 12.7 mph 19.6 mph 0.05 in Snow Light Snow
1:10 AM 35.6 °F 25.9 °F 30.2 °F 81% 29.52 in 1.5 mi NE 16.1 mph 27.6 mph 0.02 in Snow Light Snow
1:45 AM 33.8 °F 25.3 °F 30.2 °F 87% 29.49 in 1.0 mi NE 11.5 mph 19.6 mph 0.05 in Snow Light Snow
1:53 AM 35.1 °F 27.9 °F 30.9 °F 85% 29.47 in 1.2 mi NE 9.2 mph 20.7 mph 0.06 in Snow Light Snow
2:14 AM 33.8 °F 24.3 °F 30.2 °F 87% 29.47 in 0.8 mi NE 13.8 mph 23.0 mph 0.01 in Snow , Thunderstorm Light Snow
2:32 AM 35.6 °F 27.5 °F 30.2 °F 81% 29.47 in 1.0 mi East 11.5 mph 25.3 mph 0.04 in Snow Light Snow
2:39 AM 35.6 °F 28.0 °F 30.2 °F 81% 29.44 in 3.0 mi NE 10.4 mph 21.9 mph 0.06 in Snow Light Snow
2:44 AM 35.6 °F 25.9 °F 30.2 °F 81% 29.43 in 2.0 mi NE 16.1 mph 23.0 mph 0.07 in Snow Light Snow
2:51 AM 35.6 °F 27.5 °F 30.2 °F 81% 29.43 in 1.0 mi ENE 11.5 mph 28.8 mph 0.09 in Snow Light Snow
2:53 AM 35.1 °F 28.6 °F 30.9 °F 85% 29.41 in 1.0 mi ENE 8.1 mph 28.8 mph 0.09 in Snow Light Snow
3:03 AM 35.6 °F 27.1 °F 30.2 °F 81% 29.43 in 3.0 mi ENE 12.7 mph 18.4 mph 0.04 in Rain Rain
3:53 AM 35.1 °F 29.3 °F 30.9 °F 85% 29.38 in 6.0 mi Variable 6.9 mph 19.6 mph 0.14 in Rain Light Rain
4:46 AM 35.6 °F 30.7 °F 30.2 °F 81% 29.38 in 2.0 mi ENE 5.8 mph - 0.05 in Snow Light Snow
4:53 AM 35.1 °F 28.6 °F 30.9 °F 85% 29.36 in 3.0 mi NE 8.1 mph - 0.06 in Snow Light Snow
5:04 AM 35.6 °F 29.2 °F 30.2 °F 81% 29.38 in 2.5 mi ENE 8.1 mph - 0.01 in Snow Light Snow
5:29 AM 35.6 °F 30.7 °F 30.2 °F 81% 29.38 in 1.8 mi Variable 5.8 mph - 0.02 in Snow Light Snow
5:35 AM 35.6 °F 29.9 °F 30.2 °F 81% 29.38 in 3.0 mi Variable 6.9 mph - 0.03 in Snow Light Snow
5:48 AM 35.6 °F 29.9 °F 30.2 °F 81% 29.38 in 4.0 mi NNE 6.9 mph - 0.04 in   Overcast
6:53 AM 35.1 °F 30.1 °F 30.9 °F 85% 29.36 in 4.0 mi Variable 5.8 mph - 0.04 in Rain Light Rain
7:03 AM 35.6 °F 30.7 °F 30.2 °F 81% 29.37 in 4.0 mi Variable 5.8 mph - 0.00 in Snow Light Snow
7:39 AM 35.6 °F 30.7 °F 30.2 °F 81% 29.39 in 2.5 mi North 5.8 mph - 0.02 in Snow Light Snow
7:53 AM 35.1 °F 27.9 °F 30.9 °F 85% 29.37 in 1.5 mi North 9.2 mph - 0.03 in Rain Rain
8:23 AM 35.6 °F 29.2 °F 32.0 °F 87% 29.40 in 2.0 mi North 8.1 mph - 0.03 in   Overcast
8:53 AM 35.1 °F 28.6 °F 32.0 °F 89% 29.39 in 3.0 mi North 8.1 mph - 0.05 in   Overcast
9:45 AM 35.6 °F 29.9 °F 32.0 °F 87% 29.41 in 7.0 mi NNW 6.9 mph - 0.06 in   Overcast
9:53 AM 35.1 °F 29.3 °F 32.0 °F 89% 29.40 in 7.0 mi NNW 6.9 mph - 0.06 in   Overcast
10:53 AM 36.0 °F 30.3 °F 32.0 °F 86% 29.40 in 8.0 mi NNW 6.9 mph - 0.08 in   Overcast
11:40 AM 35.6 °F 28.0 °F 32.0 °F 87% 29.43 in 5.0 mi NNW 10.4 mph - 0.06 in   Overcast
11:53 AM 36.0 °F 29.6 °F 32.0 °F 86% 29.42 in 4.0 mi NNW 8.1 mph - 0.08 in   Overcast
12:53 PM 36.0 °F 29.6 °F 32.0 °F 86% 29.44 in 6.0 mi NNW 8.1 mph - 0.09 in   Overcast
1:53 PM 35.1 °F 29.3 °F 32.0 °F 89% 29.46 in 4.0 mi WNW 6.9 mph - 0.08 in   Overcast
2:53 PM 35.1 °F 28.6 °F 32.0 °F 89% 29.49 in 4.0 mi WNW 8.1 mph - 0.06 in   Overcast
3:49 PM 33.8 °F 24.8 °F 32.0 °F 93% 29.53 in 5.0 mi WNW 12.7 mph - 0.06 in   Overcast
3:53 PM 34.0 °F 25.0 °F 30.9 °F 89% 29.52 in 5.0 mi WNW 12.7 mph - 0.06 in   Overcast
4:53 PM 35.1 °F 27.4 °F 30.9 °F 85% 29.56 in 7.0 mi WNW 10.4 mph - 0.05 in   Overcast
5:53 PM 35.1 °F 27.9 °F 30.9 °F 85% 29.60 in 9.0 mi NW 9.2 mph - 0.03 in   Overcast
6:53 PM 34.0 °F 28.0 °F 30.9 °F 89% 29.64 in 8.0 mi WNW 6.9 mph - 0.03 in   Overcast
7:08 PM 33.8 °F 26.4 °F 30.2 °F 87% 29.66 in 5.0 mi WNW 9.2 mph - N/A   Overcast
7:50 PM 35.6 °F 29.2 °F 30.2 °F 81% 29.67 in 10.0 mi NW 8.1 mph - 0.01 in   Overcast
7:53 PM 35.1 °F 27.9 °F 30.9 °F 85% 29.65 in 10.0 mi NW 9.2 mph - 0.01 in   Overcast
8:31 PM 35.6 °F 29.9 °F 30.2 °F 81% 29.69 in 10.0 mi WNW 6.9 mph - 0.01 in   Overcast
8:38 PM 35.6 °F 29.2 °F 30.2 °F 81% 29.69 in 10.0 mi WNW 8.1 mph - 0.02 in   Overcast
8:53 PM 34.0 °F 27.2 °F 30.0 °F 85% 29.69 in 9.0 mi WNW 8.1 mph - 0.02 in   Overcast
9:10 PM 35.6 °F 29.9 °F 30.2 °F 81% 29.71 in 10.0 mi WNW 6.9 mph - N/A   Overcast
9:28 PM 33.8 °F 25.8 °F 30.2 °F 87% 29.72 in 8.0 mi WNW 10.4 mph - 0.01 in   Overcast
9:53 PM 34.0 °F 28.0 °F 30.0 °F 85% 29.72 in 10.0 mi WNW 6.9 mph - 0.01 in   Overcast
10:00 PM 33.8 °F 27.0 °F 30.2 °F 87% 29.73 in 10.0 mi WNW 8.1 mph - N/A   Overcast
10:21 PM 35.6 °F 28.6 °F 30.2 °F 81% 29.74 in 8.0 mi West 9.2 mph - 0.01 in   Overcast
10:53 PM 34.0 °F 25.5 °F 30.0 °F 85% 29.74 in 8.0 mi West 11.5 mph - 0.01 in   Overcast
11:06 PM 33.8 °F 24.3 °F 28.4 °F 81% 29.75 in 8.0 mi WNW 13.8 mph - 0.01 in   Overcast
11:18 PM 33.8 °F 27.0 °F 30.2 °F 87% 29.75 in 8.0 mi WNW 8.1 mph - 0.01 in   Overcast
11:33 PM 33.8 °F 24.3 °F 28.4 °F 81% 29.76 in 7.0 mi West 13.8 mph - 0.01 in   Overcast
11:40 PM 35.6 °F 26.6 °F 28.4 °F 75% 29.76 in 8.0 mi West 13.8 mph - 0.01 in   Overcast
11:51 PM 33.8 °F 24.8 °F 28.4 °F 81% 29.75 in 8.0 mi WNW 12.7 mph - 0.02 in   Overcast
11:53 PM 34.0 °F 25.5 °F 28.9 °F 82% 29.73 in 8.0 mi NW 11.5 mph - 0.02 in   Overcast